STARLINK-5674, 55465

Orbit data source: Space-Track

STARLINK-5674, 55465 is a payload satellite owned by SpaceX/Seattle (US) in LEO that was launched on Thu, 02 Feb 2023 UTC via an FALCON 9 launch vehicle from the Air Force Eastern Test Range (AFETR). Payload-class satellites include a variety of spacecraft equipped with specific instruments for various scientific and technological missions. These include communications satellites like Starlink; space stations such as the ISS; scientific satellites like the Hubble; Earth observation satellites from companies like Planet Labs, Umbra, and HawkEye 360; GPS; miniature CubeSats for education and research; and military/defense satellites.

Loading next visibility...
Identifier
55465, 2023-015S
Orbit
LEO
Country
Flag of USUS
Related business
Manufacturer
SpaceX/Seattle
Mission
Operational Commercial Communications
Bus & Motor
STARLINK, Unknown motor
Mass
305 kg wet, ~290 kg dry
Launch date (UTC)
2023-02-02 (3 years ago)
Launch vehicle
FALCON 9
Launch site
Air Force Eastern Test Range (AFETR)
Object type
Payload
Rocket body
Debris
Shape & HBR
Box + 1 Pan, 10.1 m
Radar Cross Section
13.562 m², Large (>1 m²)

Expand to show TLE details & history
Last TLE update: 18 hours ago

TLE from 18 hours ago
0 STARLINK-5674
1 55465U 23015S   26035.37447703 -.00002610  00000-0 -17814-3 0  9992
2 55465  43.0046 146.9205 0001546 271.9214  88.1451 15.02544407165745
Epoch: 2026-02-04T08:59Z
TLE epoch observation values (Epoch: 2026-02-04T08:59:14.815Z)
Latitude
-0.00003°
Longitude
-122.43324°
Altitude
558.798 km
Speed
7.584 km/s
True Right ascension
09h 47m 40s
True Declination
0° 00' 00"
Sunlit
Object was in full shadow at epoch
Visualization orbit readout
Latitude
Unknown
Longitude
Unknown
Altitude
Unknown
Speed
Unknown
Apparent Right ascension
Unknown
Apparent Declination
Unknown
Sunlit
N/A
Visualization observer readout
Local Sidereal Time
04:44:45
Azimuth
Unknown
Elevation
Unknown
Doppler factor
Unknown
Orbital elements
Apogee altitude
562.05 km
Perigee altitude
559.904 km
Semi-major axis
6,939.114 km
Eccentricity
0.00015
Inclination
43.0046°
RAAN
146.9205°
Arg. of periapsis
271.9214°
True anomaly
88.16281°
Mean anomaly
88.1451°
Eccentric anomaly
88.15395°
Mean motion
3.7548 °/min
Orbital period
95.88 mins
BSTAR
-0.00017814
Loading maneuver chart data...
Computing Atmospheric mass density...

Documentation

Showing up to 5 results
|